Weather History for TNCM - January, 2014

Change the Weather History Date:

Friday, January 10, 2014

  Actual Average Record
Temperature  
Mean Temperature 79 °F -  
Max Temperature 82 °F 81 °F 87 °F (2001)
Min Temperature 76 °F 72 °F 69 °F (2006)
Cooling Degree Days 14    
Growing Degree Days 29 (Base 50)    
Moisture  
Dew Point 67 °F    
Average Humidity 65    
Maximum Humidity 74    
Minimum Humidity 47    
Precipitation  
Precipitation 0.08 in 0.07 in - ()
Sea Level Pressure  
Sea Level Pressure 30.07 in    
Wind  
Wind Speed 13 mph ()    
Max Wind Speed 21 mph    
Max Gust Speed -    
Visibility 8.1 miles    
Events Rain    
Averages and records for this station are not official NWS values.
T = Trace of Precipitation, MM = Missing Value Source: Averaged Metar Reports

Daily Weather History Graph

Daily Weather History Graph

Search for Another Location

Airport or City:

Trip Planner

Search our weather history database for the weather conditions in past years. The results will help you decide how hot, cold, wet, or windy it might be!

Date:

Astronomy

Jan. 10, 2014 Rise Set
Actual Time 6:46 AM AST 5:53 PM AST
Civil Twilight 6:22 AM AST 6:17 PM AST
Nautical Twilight 5:55 AM AST 6:44 PM AST
Astronomical Twilight 5:29 AM AST 7:10 PM AST
Moon 1:43 PM AST (1/10) 2:03 AM AST (1/10)
Length of Visible Light 11h 54m
Length of Day
11h 07m
Waxing Gibbous, 74% of the Moon is Illuminated
Jan 10
Waxing Gibbous
Jan 16
Full
Jan 24
Last Quarter
Jan 30
New
Feb 6
First Quarter

Hourly Weather History & Observations

Time (AST) Temp. Heat Index Dew Point Humidity Pressure Visibility Wind Dir Wind Speed Gust Speed Precip Events Conditions
12:00 AM 78.8 °F - 66.2 °F 65% 30.09 in 6.2 mi ENE 11.5 mph - N/A   Scattered Clouds
1:00 AM 77.0 °F - 66.2 °F 69% 30.09 in 6.2 mi East 16.1 mph - N/A   Partly Cloudy
2:00 AM 78 °F - 67 °F 62% 30.07 in 19 mi East 10.4 mph - -   Scattered Clouds
2:00 AM 77.0 °F - 68.0 °F 74% 30.06 in 6.2 mi ENE 12.7 mph - N/A   Partly Cloudy
3:00 AM 77.0 °F - 66.2 °F 69% 30.04 in 6.2 mi East 15.0 mph - N/A   Partly Cloudy
4:00 AM 77.0 °F - 66.2 °F 69% 30.04 in 6.2 mi East 15.0 mph - N/A   Partly Cloudy
5:00 AM 77 °F - 67 °F 64% 30.04 in 19 mi South 16.1 mph - -   Scattered Clouds
5:00 AM 77.0 °F - 68.0 °F 74% 30.04 in 6.2 mi East 16.1 mph - N/A   Partly Cloudy
6:00 AM 77.0 °F - 68.0 °F 74% 30.04 in 6.2 mi East 13.8 mph - N/A   Partly Cloudy
7:00 AM 77.0 °F - 68.0 °F 74% 30.06 in 6.2 mi East 13.8 mph - N/A   Partly Cloudy
8:00 AM 77 °F - 67 °F 65% 30.10 in 25 mi East 17.3 mph - -  
8:00 AM 77.0 °F - 66.2 °F 69% 30.09 in 6.2 mi East 16.1 mph - N/A   Mostly Cloudy
9:00 AM 78.8 °F - 68.0 °F 69% 30.12 in 6.2 mi East 10.4 mph - N/A   Scattered Clouds
10:00 AM 78.8 °F - 68.0 °F 69% 30.12 in 6.2 mi ENE 20.7 mph - N/A   Scattered Clouds
11:00 AM 78 °F - 69 °F 67% 30.12 in 6 mi ENE 16.1 mph - - Rain Light Rain Showers
11:00 AM 78.8 °F - 68.0 °F 69% 30.09 in 6.2 mi ENE 16.1 mph - N/A Rain Light Rain Showers
12:00 PM 78.8 °F - 66.2 °F 65% 30.09 in 6.2 mi ENE 17.3 mph - N/A   Mostly Cloudy
1:00 PM 82.4 °F 84.6 °F 66.2 °F 58% 30.04 in 6.2 mi East 17.3 mph - N/A   Scattered Clouds
2:00 PM 82 °F - 65 °F 47% 30.04 in 16 mi ENE 16.1 mph - -   Partly Cloudy
2:00 PM 82.4 °F 83.9 °F 64.4 °F 54% 30.04 in 6.2 mi ENE 16.1 mph - N/A   Scattered Clouds
3:00 PM 82.4 °F 83.9 °F 64.4 °F 54% 30.01 in 6.2 mi ENE 13.8 mph - N/A   Scattered Clouds
4:00 PM 80.6 °F 82.7 °F 66.2 °F 61% 30.01 in 6.2 mi ENE 13.8 mph - N/A   Partly Cloudy
5:00 PM 80 °F - 65 °F 52% 30.02 in 16 mi ENE 15.0 mph - -   Scattered Clouds
5:00 PM 80.6 °F 82.7 °F 66.2 °F 61% 30.01 in 6.2 mi ENE 15.0 mph - N/A   Partly Cloudy
6:00 PM 78.8 °F - 66.2 °F 65% 30.04 in 6.2 mi ENE 12.7 mph - N/A   Partly Cloudy
7:00 PM 78.8 °F - 64.4 °F 61% 30.06 in 6.2 mi ENE 12.7 mph - N/A   Partly Cloudy
8:00 PM 78 °F - 63 °F 51% 30.08 in 16 mi East 15.0 mph - -   Partly Cloudy
8:00 PM 78.8 °F - 62.6 °F 57% 30.06 in 6.2 mi East 15.0 mph - N/A   Partly Cloudy
9:00 PM 77.0 °F - 68.0 °F 74% 30.09 in 6.2 mi ENE 15.0 mph - N/A Rain Rain
10:00 PM 77.0 °F - 68.0 °F 74% 30.09 in 6.2 mi ENE 13.8 mph - N/A   Scattered Clouds
11:00 PM 76 °F - 68 °F 70% 30.10 in 9 mi East 11.5 mph - -   Partly Cloudy
11:00 PM 77.0 °F - 68.0 °F 74% 30.09 in 6.2 mi ENE 11.5 mph - N/A   Scattered Clouds